Date String (YYYY-MM-DD hh:mm:ss) UTC,Instrument flags,absolute air pressure of the measurement (hPa),sample flow rate (lpm),inlet stack bypass flow (lpm),air temperature of the measurement (°C),ambient temperature measured by the external sensor (°C),aerosol sample conditioner tube jacket temperature (°C),OPC LED temperature (°C),internal box temperature (°C),relative humidity of the measurement (%),span deviation,mass concentration of particles derived from Lorenz-Mie calculation of OPC scattering (μg/m³),mass concentration of particles derived from Lorenz-Mie calculation of OPC scattering (μg/m³),mass concentration of particles derived from Lorenz-Mie calculation of OPC scattering (μg/m³)
DateTimeUTC,F1_M11,P_M11,Q1_M11,Q2_M11,T1_M11,T2_M11,T3_M11,T4_M11,T5_M11,U1_M11,ZSPAN_M11,X0_M11,X2_M11,X1_M11
2023-08-26 16:00:00,SystemResetWarning,0840.0,5.00,000.00,030.7,024.8,000.0,038.5,030.6,34.1,-001.0,0012.03,0008.38,0007.86
2023-08-26 16:01:00,SystemResetWarning,0840.0,5.01,000.00,030.6,024.8,000.0,038.6,030.3,34.3,-000.9,0012.06,0008.45,0007.94
2023-08-26 16:02:00,SystemResetWarning,0840.0,5.00,000.00,030.4,025.2,000.0,038.6,030.3,34.6,-000.8,0012.07,0008.52,0008.02
2023-08-26 16:03:00,SystemResetWarning,0839.9,4.98,000.00,030.3,025.6,000.0,038.6,030.3,35.0,-000.6,0012.09,0008.60,0008.12
2023-08-26 16:04:00,SystemResetWarning,0839.9,5.05,000.00,030.4,025.9,000.0,038.6,030.4,35.0,-000.7,0012.08,0008.67,0008.19
2023-08-26 16:05:00,SystemResetWarning,0839.9,4.95,000.00,030.5,026.2,000.0,038.6,030.6,34.8,-000.8,0012.07,0008.71,0008.25
2023-08-26 16:06:00,SystemResetWarning,0840.0,5.00,000.00,030.6,026.5,000.0,038.6,030.6,35.0,-000.6,0012.40,0008.75,0008.33
2023-08-26 16:07:00,SystemResetWarning,0839.9,5.03,000.00,030.7,026.7,000.0,038.6,030.7,34.9,-000.5,0012.66,0008.84,0008.40
2023-08-26 16:08:00,SystemResetWarning,0840.0,4.97,000.00,030.8,026.9,000.0,038.7,030.8,34.7,-000.6,0012.65,0008.92,0008.44
2023-08-26 16:09:00,SystemResetWarning,0840.0,5.01,000.00,030.9,027.1,000.0,038.7,030.8,34.3,-000.8,0012.68,0008.98,0008.48
2023-08-26 16:10:00,SystemResetWarning,0840.0,5.01,000.00,030.9,027.2,000.0,038.7,030.8,34.3,-000.7,0012.61,0009.02,0008.52
2023-08-26 16:11:00,SystemResetWarning,0840.0,5.00,000.00,030.9,027.3,000.0,038.8,030.8,34.5,-000.6,0012.73,0009.05,0008.53
2023-08-26 16:12:00,SystemResetWarning,0840.0,4.99,000.00,030.9,027.4,000.0,038.8,030.8,34.5,-001.0,0012.81,0009.05,0008.52
2023-08-26 16:13:00,SystemResetWarning,0840.0,4.99,000.00,030.8,027.5,000.0,038.9,030.8,34.3,-001.0,0012.86,0009.03,0008.50
2023-08-26 16:14:00,SystemResetWarning,0840.1,5.00,000.00,030.8,027.5,000.0,038.9,030.9,34.4,-001.2,0012.86,0009.01,0008.45
2023-08-26 16:15:00,SystemResetWarning,0840.1,5.00,000.00,030.8,027.6,000.0,038.9,030.9,34.3,-001.2,0012.96,0009.01,0008.44
2023-08-26 16:16:00,SystemResetWarning,0840.0,5.01,000.00,030.8,027.6,000.0,038.9,030.9,34.4,-001.4,0013.02,0009.01,0008.43
2023-08-26 16:17:00,SystemResetWarning,0840.0,5.00,000.00,030.8,027.7,000.0,038.9,031.0,34.4,-001.6,0012.81,0009.02,0008.43
2023-08-26 16:18:00,SystemResetWarning,0839.9,4.99,000.00,030.8,026.6,000.0,038.8,030.9,34.5,-001.7,0012.75,0009.02,0008.43
2023-08-26 16:19:00,SystemResetWarning,0839.9,5.00,000.00,030.7,025.1,000.0,038.7,030.7,34.6,-001.8,0012.91,0009.00,0008.45
2023-08-26 16:20:00,SystemResetWarning,0840.0,5.01,000.00,030.6,024.7,000.0,038.6,030.4,34.7,-001.9,0012.92,0009.03,0008.49
2023-08-26 16:21:00,SystemResetWarning,0839.8,4.99,000.00,030.4,024.9,000.0,038.6,030.2,35.3,-002.0,0012.97,0009.07,0008.53
2023-08-26 16:22:00,SystemResetWarning,0839.9,5.03,000.00,030.5,025.3,000.0,038.6,030.3,35.1,-001.8,0012.89,0009.09,0008.56
2023-08-26 16:23:00,SystemResetWarning,0839.9,4.96,000.00,030.7,025.6,000.0,038.6,030.5,34.7,-001.6,0012.84,0009.14,0008.62
2023-08-26 16:24:00,SystemResetWarning,0839.9,5.01,000.00,030.7,026.0,000.0,038.6,030.6,34.7,-001.5,0012.91,0009.25,0008.70
2023-08-26 16:25:00,SystemResetWarning,0839.9,5.01,000.00,030.8,026.3,000.0,038.7,030.6,34.6,-001.4,0013.03,0009.33,0008.77
2023-08-26 16:26:00,SystemResetWarning,0839.9,4.98,000.00,030.8,026.6,000.0,038.7,030.6,34.5,-001.4,0013.00,0009.40,0008.83
2023-08-26 16:27:00,SystemResetWarning,0839.9,5.00,000.00,030.8,026.8,000.0,038.7,030.7,34.5,-001.2,0013.09,0009.47,0008.90
2023-08-26 16:28:00,SystemResetWarning,0839.9,5.00,000.00,030.8,027.0,000.0,038.7,030.7,34.4,-001.2,0013.29,0009.57,0008.96
2023-08-26 16:29:00,SystemResetWarning,0839.9,5.01,000.00,030.7,027.1,000.0,038.8,030.7,34.6,-001.0,0013.32,0009.67,0009.01
2023-08-26 16:30:00,SystemResetWarning,0839.9,4.99,000.00,030.7,027.2,000.0,038.8,030.7,34.4,-000.9,0013.19,0009.73,0009.05
2023-08-26 16:31:00,SystemResetWarning,0839.9,5.00,000.00,030.7,027.3,000.0,038.8,030.7,34.2,-000.6,0013.17,0009.72,0009.07
2023-08-26 16:32:00,SystemResetWarning,0839.9,4.99,000.00,030.7,027.4,000.0,038.8,030.8,34.4,-000.5,0013.17,0009.75,0009.12
2023-08-26 16:33:00,SystemResetWarning,0839.9,4.99,000.00,030.6,027.5,000.0,038.8,030.8,34.5,-000.6,0013.32,0009.85,0009.18
2023-08-26 16:34:00,SystemResetWarning,0839.9,5.03,000.00,030.6,027.5,000.0,038.8,030.8,34.8,-000.6,0013.40,0009.91,0009.24
2023-08-26 16:35:00,SystemResetWarning,0839.9,4.98,000.00,030.7,027.6,000.0,038.8,030.9,34.2,-000.9,0013.43,0009.91,0009.25
2023-08-26 16:36:00,SystemResetWarning,0839.9,5.00,000.00,030.7,027.6,000.0,038.8,030.9,33.6,-001.0,0013.58,0009.98,0009.30
2023-08-26 16:37:00,SystemResetWarning,0839.9,5.01,000.00,030.7,027.7,000.0,038.8,030.9,33.7,-000.9,0013.71,0010.03,0009.33
2023-08-26 16:38:00,SystemResetWarning,0839.9,5.01,000.00,030.7,027.7,000.0,038.9,030.9,33.9,-001.0,0013.88,0010.03,0009.32
2023-08-26 16:39:00,SystemResetWarning,0839.9,4.98,000.00,030.6,027.2,000.0,038.8,030.9,34.1,-001.0,0013.78,0009.99,0009.32
2023-08-26 16:40:00,SystemResetWarning,0839.9,5.00,000.00,030.6,025.5,000.0,038.6,030.7,34.2,-001.2,0013.65,0009.93,0009.31
2023-08-26 16:41:00,SystemResetWarning,0839.9,5.01,000.00,030.5,024.8,000.0,038.5,030.4,34.2,-001.2,0013.63,0009.93,0009.32
2023-08-26 16:42:00,SystemResetWarning,0839.8,5.01,000.00,030.3,024.9,000.0,038.5,030.2,34.1,-001.2,0013.72,0009.99,0009.34
2023-08-26 16:43:00,SystemResetWarning,0839.9,4.99,000.00,030.2,025.2,000.0,038.5,030.2,34.3,-001.1,0013.73,0009.99,0009.33
2023-08-26 16:44:00,SystemResetWarning,0839.8,4.99,000.00,030.1,025.6,000.0,038.5,030.2,34.6,-001.1,0013.73,0009.96,0009.33
2023-08-26 16:45:00,SystemResetWarning,0839.8,4.98,000.00,030.0,025.9,000.0,038.5,030.3,35.0,-001.0,0013.70,0009.92,0009.31
2023-08-26 16:46:00,SystemResetWarning,0839.7,5.04,000.00,030.1,026.3,000.0,038.5,030.4,35.4,-000.9,0013.74,0009.97,0009.34
2023-08-26 16:47:00,SystemResetWarning,0839.8,5.00,000.00,030.3,026.5,000.0,038.5,030.6,35.2,-000.8,0013.72,0009.98,0009.37
2023-08-26 16:48:00,SystemResetWarning,0839.8,4.98,000.00,030.5,026.7,000.0,038.5,030.7,33.9,-000.8,0014.03,0010.00,0009.39
2023-08-26 16:49:00,SystemResetWarning,0839.8,5.01,000.00,030.7,026.9,000.0,038.5,030.8,33.5,-000.7,0014.10,0010.02,0009.42
2023-08-26 16:50:00,SystemResetWarning,0839.8,5.01,000.00,030.8,027.1,000.0,038.5,030.8,33.0,-000.6,0014.58,0010.06,0009.47
2023-08-26 16:51:00,SystemResetWarning,0839.8,5.00,000.00,030.8,027.2,000.0,038.6,030.8,32.9,-000.4,0014.68,0010.11,0009.51
2023-08-26 16:52:00,SystemResetWarning,0839.8,5.00,000.00,030.8,027.3,000.0,038.6,030.8,32.9,-000.5,0014.78,0010.16,0009.55
2023-08-26 16:53:00,SystemResetWarning,0839.8,4.99,000.00,030.8,027.4,000.0,038.7,030.8,33.2,-000.6,0014.78,0010.17,0009.58
2023-08-26 16:54:00,SystemResetWarning,0839.8,5.00,000.00,030.8,027.5,000.0,038.7,030.8,33.5,-000.8,0014.79,0010.16,0009.58
2023-08-26 16:55:00,SystemResetWarning,0839.8,5.01,000.00,030.8,027.6,000.0,038.8,030.8,33.4,-000.9,0014.64,0010.12,0009.55
2023-08-26 16:56:00,SystemResetWarning,0839.8,5.01,000.00,030.8,027.6,000.0,038.8,030.9,33.3,-001.1,0015.23,0010.08,0009.50
2023-08-26 16:57:00,SystemResetWarning,0839.8,4.99,000.00,030.8,027.7,000.0,038.8,030.9,33.1,-001.1,0015.35,0010.00,0009.43
2023-08-26 16:58:00,SystemResetWarning,0839.8,4.99,000.00,030.7,027.7,000.0,038.9,030.9,33.1,-001.2,0015.28,0009.92,0009.35
2023-08-26 16:59:00,SystemResetWarning,0839.8,4.99,000.00,030.7,026.8,000.0,038.8,030.8,33.2,-001.3,0014.93,0009.82,0009.28
